When you browse on this site, cookies collect data to enhance your experience and personalize the content and advertising you see.
Visit our Privacy Policy to learn more. By continuing to use the site, you agree to this use of cookies and data.
  • In Schweiz
  • Länderverzeichnis
  • Für 7 Tage
  • Wassertemperatur
  • Satellitenkarten
  • Wetterkarte
  • Widgets
  • user-avatar
    Anmelden

    Stündliche Wetter Saurimo

    Heute, 23 März, Samstag

    Zeit Temperatur Niederschläge Wind Luftdruck Luftfeuchtigkeit
    00:00 +23°C° 0 mm 1 m/S 668 mmHg 73%
    01:00 +23°C° 0 mm 1 m/S 668 mmHg 73%
    02:00 +22°C° 0 mm 1 m/S 668 mmHg 73%
    03:00 +22°C° 0 mm 1 m/S 668 mmHg 72%
    04:00 +22°C° 0 mm 1 m/S 668 mmHg 72%
    05:00 +22°C° 0 mm 1 m/S 668 mmHg 73%
    06:00 +23°C° 0 mm 1 m/S 669 mmHg 74%
    07:00 +23°C° 0 mm 1 m/S 669 mmHg 75%
    08:00 +26°C° 0 mm 2 m/S 670 mmHg 67%
    09:00 +28°C° 0 mm 2 m/S 671 mmHg 59%
    10:00 +30°C° 0 mm 2 m/S 671 mmHg 52%
    11:00 +31°C° 0 mm 3 m/S 671 mmHg 47%
    12:00 +33°C° 0 mm 3 m/S 670 mmHg 43%
    13:00 +35°C° 0 mm 3 m/S 670 mmHg 39%
    14:00 +34°C° 0 mm 3 m/S 669 mmHg 41%
    15:00 +34°C° 0 mm 2 m/S 669 mmHg 44%
    16:00 +34°C° 0 mm 2 m/S 669 mmHg 46%
    17:00 +30°C° 0 mm 1 m/S 668 mmHg 51%
    18:00 +28°C° 0 mm 1 m/S 668 mmHg 56%
    19:00 +25°C° 0 mm 1 m/S 668 mmHg 61%
    20:00 +25°C° 0 mm 1 m/S 668 mmHg 62%
    21:00 +24°C° 0 mm 1 m/S 668 mmHg 63%
    22:00 +23°C° 0 mm 1 m/S 668 mmHg 65%
    23:00 +22°C° 0 mm 1 m/S 668 mmHg 66%

    Morgen, 24 März, Sonntag

    Zeit Temperatur Niederschläge Wind Luftdruck Luftfeuchtigkeit
    00:00 +22°C° 0 mm 1 m/S 668 mmHg 67%
    01:00 +21°C° 0 mm 2 m/S 668 mmHg 68%
    02:00 +21°C° 0 mm 1 m/S 668 mmHg 70%
    03:00 +21°C° 0 mm 1 m/S 668 mmHg 72%
    04:00 +21°C° 0 mm 1 m/S 668 mmHg 74%
    05:00 +21°C° 0.1 mm 1 m/S 669 mmHg 75%
    06:00 +22°C° 0.1 mm 1 m/S 669 mmHg 77%
    07:00 +23°C° 0.1 mm 1 m/S 670 mmHg 78%
    08:00 +25°C° 0 mm 1 m/S 670 mmHg 70%
    09:00 +28°C° 0 mm 1 m/S 671 mmHg 63%
    10:00 +30°C° 0 mm 2 m/S 672 mmHg 55%
    11:00 +31°C° 0.3 mm 2 m/S 671 mmHg 52%
    12:00 +32°C° 0.3 mm 2 m/S 670 mmHg 50%
    13:00 +32°C° 0.3 mm 2 m/S 670 mmHg 47%
    14:00 +30°C° 1.5 mm 3 m/S 669 mmHg 60%
    15:00 +27°C° 1.5 mm 3 m/S 669 mmHg 73%
    16:00 +23°C° 1.5 mm 4 m/S 668 mmHg 86%
    17:00 +22°C° 0.1 mm 3 m/S 668 mmHg 89%
    18:00 +22°C° 0.1 mm 3 m/S 669 mmHg 92%
    19:00 +21°C° 0.1 mm 2 m/S 669 mmHg 95%
    20:00 +21°C° 0.6 mm 2 m/S 670 mmHg 95%
    21:00 +21°C° 0.6 mm 1 m/S 670 mmHg 96%
    22:00 +19°C° 0.6 mm 0 m/S 670 mmHg 97%
    23:00 +21°C° 0.5 mm 1 m/S 670 mmHg 97%

    übermorgen, 25 März, Montag

    Zeit Temperatur Niederschläge Wind Luftdruck Luftfeuchtigkeit
    00:00 +21°C° 0.5 mm 1 m/S 669 mmHg 96%
    01:00 +21°C° 0.5 mm 1 m/S 669 mmHg 96%
    02:00 +21°C° 0.1 mm 1 m/S 669 mmHg 96%
    03:00 +20°C° 0.1 mm 1 m/S 669 mmHg 96%
    04:00 +20°C° 0.1 mm 1 m/S 668 mmHg 97%
    05:00 +21°C° 0.6 mm 1 m/S 669 mmHg 96%
    06:00 +21°C° 0.6 mm 1 m/S 670 mmHg 96%
    07:00 +21°C° 0.6 mm 1 m/S 670 mmHg 95%
    08:00 +22°C° 0.4 mm 1 m/S 670 mmHg 94%
    09:00 +22°C° 0.4 mm 1 m/S 671 mmHg 92%
    10:00 +23°C° 0.4 mm 1 m/S 671 mmHg 91%
    11:00 +24°C° 0.1 mm 1 m/S 670 mmHg 86%
    12:00 +25°C° 0.1 mm 1 m/S 670 mmHg 81%
    13:00 +26°C° 0.1 mm 1 m/S 669 mmHg 77%
    14:00 +25°C° 0.1 mm 1 m/S 669 mmHg 78%
    15:00 +25°C° 0.1 mm 1 m/S 668 mmHg 80%
    16:00 +25°C° 0.1 mm 1 m/S 668 mmHg 81%
    17:00 +22°C° 0 mm 0 m/S 668 mmHg 81%
    18:00 +21°C° 0 mm 0 m/S 669 mmHg 81%
    19:00 +20°C° 0 mm 0 m/S 669 mmHg 81%
    20:00 +20°C° 0 mm 0 m/S 669 mmHg 81%
    21:00 +19°C° 0 mm 0 m/S 670 mmHg 80%
    22:00 +19°C° 0 mm 0 m/S 670 mmHg 80%
    23:00 +18°C° 0 mm 0 m/S 669 mmHg 82%

    26 März, Dienstag

    Zeit Temperatur Niederschläge Wind Luftdruck Luftfeuchtigkeit
    00:00 +18°C° 0 mm 0 m/S 669 mmHg 84%
    01:00 +17°C° 0 mm 0 m/S 668 mmHg 86%
    02:00 +17°C° 0 mm 0 m/S 668 mmHg 86%
    03:00 +17°C° 0 mm 0 m/S 668 mmHg 86%
    04:00 +17°C° 0 mm 0 m/S 668 mmHg 87%
    05:00 +17°C° 0 mm 0 m/S 669 mmHg 85%
    06:00 +20°C° 0 mm 1 m/S 670 mmHg 83%
    07:00 +21°C° 0 mm 1 m/S 670 mmHg 81%
    08:00 +24°C° 0 mm 1 m/S 671 mmHg 72%
    09:00 +26°C° 0 mm 1 m/S 672 mmHg 63%
    10:00 +29°C° 0 mm 2 m/S 672 mmHg 55%
    11:00 +30°C° 0 mm 1 m/S 672 mmHg 50%
    12:00 +32°C° 0 mm 1 m/S 671 mmHg 46%
    13:00 +33°C° 0 mm 1 m/S 671 mmHg 42%
    14:00 +32°C° 0 mm 1 m/S 671 mmHg 46%
    15:00 +31°C° 0 mm 1 m/S 670 mmHg 50%
    16:00 +28°C° 0 mm 0 m/S 670 mmHg 54%
    17:00 +28°C° 0 mm 1 m/S 670 mmHg 61%
    18:00 +26°C° 0 mm 1 m/S 670 mmHg 68%
    19:00 +24°C° 0 mm 1 m/S 670 mmHg 76%
    20:00 +23°C° 0 mm 1 m/S 670 mmHg 80%
    21:00 +23°C° 0 mm 1 m/S 670 mmHg 84%
    22:00 +22°C° 0 mm 1 m/S 671 mmHg 88%
    23:00 +21°C° 0.8 mm 1 m/S 670 mmHg 90%

    27 März, Mittwoch

    Zeit Temperatur Niederschläge Wind Luftdruck Luftfeuchtigkeit
    00:00 +21°C° 0.8 mm 1 m/S 670 mmHg 92%
    01:00 +20°C° 0.8 mm 1 m/S 669 mmHg 94%
    02:00 +20°C° 0.4 mm 1 m/S 669 mmHg 95%
    03:00 +20°C° 0.4 mm 1 m/S 669 mmHg 96%
    04:00 +20°C° 0.4 mm 1 m/S 669 mmHg 96%
    05:00 +20°C° 0 mm 1 m/S 670 mmHg 94%
    06:00 +21°C° 0 mm 1 m/S 671 mmHg 93%
    07:00 +20°C° 0 mm 0 m/S 672 mmHg 91%
    08:00 +25°C° 0 mm 1 m/S 672 mmHg 80%
    09:00 +28°C° 0 mm 1 m/S 673 mmHg 68%
    10:00 +30°C° 0 mm 1 m/S 674 mmHg 57%
    11:00 +32°C° 0.1 mm 1 m/S 673 mmHg 53%
    12:00 +33°C° 0.1 mm 1 m/S 673 mmHg 49%
    13:00 +33°C° 0.1 mm 0 m/S 672 mmHg 45%
    14:00 +32°C° 0.9 mm 1 m/S 672 mmHg 55%
    15:00 +30°C° 0.9 mm 2 m/S 671 mmHg 65%
    16:00 +27°C° 0.9 mm 2 m/S 671 mmHg 76%
    17:00 +26°C° 1.5 mm 2 m/S 671 mmHg 81%
    18:00 +24°C° 1.5 mm 2 m/S 671 mmHg 87%
    19:00 +23°C° 1.5 mm 2 m/S 672 mmHg 93%
    20:00 +22°C° 0.5 mm 1 m/S 672 mmHg 94%
    21:00 +22°C° 0.5 mm 1 m/S 672 mmHg 95%
    22:00 +22°C° 0.5 mm 1 m/S 672 mmHg 96%
    23:00 +22°C° 0 mm 1 m/S 672 mmHg 96%

    28 März, Donnerstag

    Zeit Temperatur Niederschläge Wind Luftdruck Luftfeuchtigkeit
    00:00 +20°C° 0 mm 0 m/S 671 mmHg 95%
    01:00 +20°C° 0 mm 0 m/S 671 mmHg 95%
    02:00 +21°C° 0 mm 1 m/S 671 mmHg 95%
    03:00 +21°C° 0 mm 1 m/S 671 mmHg 96%
    04:00 +21°C° 0 mm 1 m/S 671 mmHg 96%
    05:00 +21°C° 0 mm 1 m/S 671 mmHg 94%
    06:00 +22°C° 0 mm 1 m/S 672 mmHg 92%
    07:00 +22°C° 0 mm 1 m/S 672 mmHg 90%
    08:00 +24°C° 0 mm 2 m/S 672 mmHg 79%
    09:00 +27°C° 0 mm 2 m/S 673 mmHg 69%
    10:00 +29°C° 0 mm 2 m/S 673 mmHg 58%
    11:00 +30°C° 0 mm 2 m/S 672 mmHg 55%
    12:00 +31°C° 0 mm 2 m/S 672 mmHg 53%
    13:00 +33°C° 0 mm 3 m/S 671 mmHg 50%
    14:00 +31°C° 0.2 mm 2 m/S 671 mmHg 54%
    15:00 +31°C° 0.2 mm 2 m/S 670 mmHg 58%
    16:00 +30°C° 0.2 mm 2 m/S 670 mmHg 62%
    17:00 +28°C° 0.4 mm 1 m/S 670 mmHg 69%
    18:00 +26°C° 0.4 mm 1 m/S 670 mmHg 76%
    19:00 +22°C° 0.4 mm 0 m/S 670 mmHg 83%
    20:00 +22°C° 0 mm 0 m/S 670 mmHg 85%
    21:00 +21°C° 0 mm 0 m/S 670 mmHg 86%
    22:00 +21°C° 0 mm 0 m/S 670 mmHg 87%
    23:00 +22°C° 0.4 mm 1 m/S 670 mmHg 90%
    Mehr zeigen